No particular awareness of the weather is required.    There are no Weather-warnings


Meteo18 Weather Cam more information Meteo18 Weather Cam


Thunder radar more information blitzortung!


Rain radar more information rain snow radar


Visit our other weather sites:

Template documentation
and downloads

And another site



Weather Underground History page Text

Daily Summary for May 23, 2017 Units:  Both    English   Metric
« Previous Day
Next Day »
Daily Weekly Monthly Yearly Custom
  High: Low: Average:
Temperature: TemperatureC °F /  -17.8 °C 11.7 °F /  -11.3 °C 18.5 °F /  -7.5 °C
Dew Point: DewpointC °F /  -17.8 °C 10.9 °F /  -11.7 °C 14.2 °F /  -9.9 °C
Humidity: Humidity % 52 % 77 %
Wind Speed: WindSpeedKMH mph /  0 km/h - 3 mph /  4.8 km/h
Wind Gust: WindSpeedGustKMH mph /  0 km/h - -
Wind:- - West
Pressure: PressurehPa in /  0 hPa 1018.8 in /  34496.6 hPa -
Precipitation: 0.0 in /  0 mm    
Historical Graphs
 
 
Tabular Data for May 23, 2017
Time Temperature Dew Point Pressure Wind Wind Speed Wind Gust Humidity Rainfall Rate (Hourly)
TemperatureC °F /  -17.8 °C DewpointC °F /  -17.8 °C PressurehPa in /  0 hPa Calm     Humidity % HourlyPrecipMM in /  0 mm
00:02 18.4 °F /  -7.6 °C 14.3 °F /  -9.8 °C 1018.8 in /  34496.6 hPa WNW 1.6 mph /  2.6 km/h 8.0 mph /  12.9 km/h 77 % 0.0 in /  0 mm
00:07 18.3 °F /  -7.6 °C 14.4 °F /  -9.8 °C 1018.8 in /  34496.6 hPa Calm   6.4 mph /  10.3 km/h 78 % 0.0 in /  0 mm
00:12 18.3 °F /  -7.6 °C 14.4 °F /  -9.8 °C 1018.8 in /  34496.6 hPa Calm   6.4 mph /  10.3 km/h 78 % 0.0 in /  0 mm
00:17 18.1 °F /  -7.7 °C 14.2 °F /  -9.9 °C 1018.8 in /  34496.6 hPa Calm   4.8 mph /  7.7 km/h 78 % 0.0 in /  0 mm
00:22 18.0 °F /  -7.8 °C 14.3 °F /  -9.8 °C 1018.8 in /  34496.6 hPa WNW 1.6 mph /  2.6 km/h 4.8 mph /  7.7 km/h 79 % 0.0 in /  0 mm
00:27 17.9 °F /  -7.8 °C 14.2 °F /  -9.9 °C 1018.8 in /  34496.6 hPa Calm   4.8 mph /  7.7 km/h 79 % 0.0 in /  0 mm
00:32 17.9 °F /  -7.8 °C 14.2 °F /  -9.9 °C 1018.8 in /  34496.6 hPa WNW 1.6 mph /  2.6 km/h 4.8 mph /  7.7 km/h 79 % 0.0 in /  0 mm
00:37 17.8 °F /  -7.9 °C 14.1 °F /  -9.9 °C 1019.2 in /  34510.1 hPa North 1.6 mph /  2.6 km/h 4.8 mph /  7.7 km/h 79 % 0.0 in /  0 mm
00:42 17.7 °F /  -7.9 °C 14.2 °F /  -9.9 °C 1019.2 in /  34510.1 hPa WNW 1.6 mph /  2.6 km/h 4.8 mph /  7.7 km/h 80 % 0.0 in /  0 mm
00:52 17.6 °F /  -8 °C 14.1 °F /  -9.9 °C 1019.2 in /  34510.1 hPa WNW 3.2 mph /  5.1 km/h 4.8 mph /  7.7 km/h 80 % 0.0 in /  0 mm
00:57 17.6 °F /  -8 °C 14.1 °F /  -9.9 °C 1019.2 in /  34510.1 hPa WNW 1.6 mph /  2.6 km/h 4.8 mph /  7.7 km/h 80 % 0.0 in /  0 mm
01:02 17.5 °F /  -8.1 °C 14.0 °F /  -10 °C 1019.2 in /  34510.1 hPa Calm   4.8 mph /  7.7 km/h 80 % 0.0 in /  0 mm
01:07 17.2 °F /  -8.2 °C 13.9 °F /  -10.1 °C 1019.2 in /  34510.1 hPa Calm   4.8 mph /  7.7 km/h 81 % 0.0 in /  0 mm
01:12 16.9 °F /  -8.4 °C 14.0 °F /  -10 °C 1019.2 in /  34510.1 hPa Calm   4.8 mph /  7.7 km/h 83 % 0.0 in /  0 mm
01:17 16.9 °F /  -8.4 °C 14.0 °F /  -10 °C 1019.2 in /  34510.1 hPa Calm   1.6 mph /  2.6 km/h 83 % 0.0 in /  0 mm
01:22 16.8 °F /  -8.4 °C 13.9 °F /  -10.1 °C 1019.2 in /  34510.1 hPa Calm   1.6 mph /  2.6 km/h 83 % 0.0 in /  0 mm
01:32 16.5 °F /  -8.6 °C 13.8 °F /  -10.1 °C 1019.2 in /  34510.1 hPa Calm   1.6 mph /  2.6 km/h 84 % 0.0 in /  0 mm
01:42 16.2 °F /  -8.8 °C 13.7 °F /  -10.2 °C 1019.2 in /  34510.1 hPa Calm     85 % 0.0 in /  0 mm
01:47 16.0 °F /  -8.9 °C 13.5 °F /  -10.3 °C 1019.2 in /  34510.1 hPa Calm     85 % 0.0 in /  0 mm
01:52 15.9 °F /  -8.9 °C 13.6 °F /  -10.2 °C 1019.2 in /  34510.1 hPa Calm     86 % 0.0 in /  0 mm
01:57 15.8 °F /  -9 °C 13.5 °F /  -10.3 °C 1019.2 in /  34510.1 hPa Calm     86 % 0.0 in /  0 mm
02:02 15.9 °F /  -8.9 °C 13.7 °F /  -10.2 °C 1019.2 in /  34510.1 hPa Calm     87 % 0.0 in /  0 mm
02:12 15.8 °F /  -9 °C 13.6 °F /  -10.2 °C 1019.2 in /  34510.1 hPa Calm     87 % 0.0 in /  0 mm
02:17 15.8 °F /  -9 °C 13.6 °F /  -10.2 °C 1019.2 in /  34510.1 hPa Calm     87 % 0.0 in /  0 mm
02:22 15.8 °F /  -9 °C 13.6 °F /  -10.2 °C 1018.8 in /  34496.6 hPa WSW 3.2 mph /  5.1 km/h   87 % 0.0 in /  0 mm
02:32 15.7 °F /  -9.1 °C 13.5 °F /  -10.3 °C 1019.2 in /  34510.1 hPa SSW 1.6 mph /  2.6 km/h 3.2 mph /  5.1 km/h 87 % 0.0 in /  0 mm
02:37 15.6 °F /  -9.1 °C 13.4 °F /  -10.3 °C 1019.2 in /  34510.1 hPa Calm   3.2 mph /  5.1 km/h 87 % 0.0 in /  0 mm
02:47 15.3 °F /  -9.3 °C 13.1 °F /  -10.5 °C 1019.2 in /  34510.1 hPa Calm   1.6 mph /  2.6 km/h 87 % 0.0 in /  0 mm
02:52 15.1 °F /  -9.4 °C 13.1 °F /  -10.5 °C 1019.2 in /  34510.1 hPa Calm   1.6 mph /  2.6 km/h 88 % 0.0 in /  0 mm
02:57 14.9 °F /  -9.5 °C 13.1 °F /  -10.5 °C 1019.2 in /  34510.1 hPa Calm   1.6 mph /  2.6 km/h 89 % 0.0 in /  0 mm
03:02 14.8 °F /  -9.6 °C 13.2 °F /  -10.4 °C 1019.2 in /  34510.1 hPa Calm   1.6 mph /  2.6 km/h 90 % 0.0 in /  0 mm
03:12 14.8 °F /  -9.6 °C 13.2 °F /  -10.4 °C 1019.2 in /  34510.1 hPa Calm   1.6 mph /  2.6 km/h 90 % 0.0 in /  0 mm
03:17 14.7 °F /  -9.6 °C 13.1 °F /  -10.5 °C 1019.2 in /  34510.1 hPa Calm     90 % 0.0 in /  0 mm
03:22 14.7 °F /  -9.6 °C 13.1 °F /  -10.5 °C 1019.2 in /  34510.1 hPa Calm     90 % 0.0 in /  0 mm
03:27 14.6 °F /  -9.7 °C 13.1 °F /  -10.5 °C 1019.2 in /  34510.1 hPa Calm   1.6 mph /  2.6 km/h 91 % 0.0 in /  0 mm
03:32 14.4 °F /  -9.8 °C 12.9 °F /  -10.6 °C 1019.2 in /  34510.1 hPa Calm   1.6 mph /  2.6 km/h 91 % 0.0 in /  0 mm
03:42 14.1 °F /  -9.9 °C 12.7 °F /  -10.7 °C 1019.2 in /  34510.1 hPa Calm   1.6 mph /  2.6 km/h 91 % 0.0 in /  0 mm
03:47 14.1 °F /  -9.9 °C 12.8 °F /  -10.7 °C 1019.2 in /  34510.1 hPa Calm   1.6 mph /  2.6 km/h 92 % 0.0 in /  0 mm
03:52 13.9 °F /  -10.1 °C 12.6 °F /  -10.8 °C 1019.2 in /  34510.1 hPa Calm   1.6 mph /  2.6 km/h 92 % 0.0 in /  0 mm
04:02 13.7 °F /  -10.2 °C 12.4 °F /  -10.9 °C 1019.2 in /  34510.1 hPa Calm   1.6 mph /  2.6 km/h 92 % 0.0 in /  0 mm
04:07 13.4 °F /  -10.3 °C 12.1 °F /  -11.1 °C 1019.2 in /  34510.1 hPa Calm   1.6 mph /  2.6 km/h 92 % 0.0 in /  0 mm
04:12 13.3 °F /  -10.4 °C 12.0 °F /  -11.1 °C 1019.2 in /  34510.1 hPa Calm   1.6 mph /  2.6 km/h 92 % 0.0 in /  0 mm
04:17 13.2 °F /  -10.4 °C 12.1 °F /  -11.1 °C 1019.2 in /  34510.1 hPa Calm   1.6 mph /  2.6 km/h 93 % 0.0 in /  0 mm
04:22 13.2 °F /  -10.4 °C 12.1 °F /  -11.1 °C 1019.2 in /  34510.1 hPa Calm   1.6 mph /  2.6 km/h 93 % 0.0 in /  0 mm
04:27 13.1 °F /  -10.5 °C 12.0 °F /  -11.1 °C 1019.5 in /  34520.3 hPa Calm   1.6 mph /  2.6 km/h 93 % 0.0 in /  0 mm
04:32 13.1 °F /  -10.5 °C 12.0 °F /  -11.1 °C 1019.5 in /  34520.3 hPa Calm   1.6 mph /  2.6 km/h 93 % 0.0 in /  0 mm
04:37 12.9 °F /  -10.6 °C 11.8 °F /  -11.2 °C 1019.5 in /  34520.3 hPa Calm   1.6 mph /  2.6 km/h 93 % 0.0 in /  0 mm
04:42 12.9 °F /  -10.6 °C 12.0 °F /  -11.1 °C 1019.5 in /  34520.3 hPa Calm   1.6 mph /  2.6 km/h 94 % 0.0 in /  0 mm
04:47 12.6 °F /  -10.8 °C 11.5 °F /  -11.4 °C 1019.5 in /  34520.3 hPa Calm   1.6 mph /  2.6 km/h 93 % 0.0 in /  0 mm
04:52 12.6 °F /  -10.8 °C 11.7 °F /  -11.3 °C 1019.5 in /  34520.3 hPa Calm   1.6 mph /  2.6 km/h 94 % 0.0 in /  0 mm
04:57 12.6 °F /  -10.8 °C 11.7 °F /  -11.3 °C 1019.5 in /  34520.3 hPa Calm   1.6 mph /  2.6 km/h 94 % 0.0 in /  0 mm
05:02 12.5 °F /  -10.8 °C 11.6 °F /  -11.3 °C 1019.5 in /  34520.3 hPa Calm   1.6 mph /  2.6 km/h 94 % 0.0 in /  0 mm
05:12 12.5 °F /  -10.8 °C 11.6 °F /  -11.3 °C 1019.5 in /  34520.3 hPa Calm     94 % 0.0 in /  0 mm
05:17 12.4 °F /  -10.9 °C 11.5 °F /  -11.4 °C 1019.5 in /  34520.3 hPa Calm     94 % 0.0 in /  0 mm
05:22 12.2 °F /  -11 °C 11.3 °F /  -11.5 °C 1019.5 in /  34520.3 hPa Calm     94 % 0.0 in /  0 mm
05:32 12.1 °F /  -11.1 °C 11.3 °F /  -11.5 °C 1019.5 in /  34520.3 hPa Calm     95 % 0.0 in /  0 mm
05:42 12.2 °F /  -11 °C 11.4 °F /  -11.4 °C 1019.9 in /  34533.8 hPa Calm   3.2 mph /  5.1 km/h 95 % 0.0 in /  0 mm
05:47 12.3 °F /  -10.9 °C 11.5 °F /  -11.4 °C 1019.9 in /  34533.8 hPa South 3.2 mph /  5.1 km/h 3.2 mph /  5.1 km/h 95 % 0.0 in /  0 mm
05:52 12.2 °F /  -11 °C 11.4 °F /  -11.4 °C 1019.9 in /  34533.8 hPa Calm   3.2 mph /  5.1 km/h 95 % 0.0 in /  0 mm
06:02 11.9 °F /  -11.2 °C 11.1 °F /  -11.6 °C 1019.9 in /  34533.8 hPa SSE 1.6 mph /  2.6 km/h 3.2 mph /  5.1 km/h 95 % 0.0 in /  0 mm
06:07 11.8 °F /  -11.2 °C 11.0 °F /  -11.7 °C 1019.9 in /  34533.8 hPa South 3.2 mph /  5.1 km/h 3.2 mph /  5.1 km/h 95 % 0.0 in /  0 mm
06:12 11.7 °F /  -11.3 °C 10.9 °F /  -11.7 °C 1019.9 in /  34533.8 hPa Calm   3.2 mph /  5.1 km/h 95 % 0.0 in /  0 mm
06:17 11.7 °F /  -11.3 °C 10.9 °F /  -11.7 °C 1019.9 in /  34533.8 hPa Calm   3.2 mph /  5.1 km/h 95 % 0.0 in /  0 mm
06:22 11.7 °F /  -11.3 °C 10.9 °F /  -11.7 °C 1019.9 in /  34533.8 hPa Calm   3.2 mph /  5.1 km/h 95 % 0.0 in /  0 mm
06:27 11.7 °F /  -11.3 °C 11.1 °F /  -11.6 °C 1019.9 in /  34533.8 hPa Calm   3.2 mph /  5.1 km/h 96 % 0.0 in /  0 mm
06:32 11.7 °F /  -11.3 °C 10.9 °F /  -11.7 °C 1019.9 in /  34533.8 hPa Calm   3.2 mph /  5.1 km/h 95 % 0.0 in /  0 mm
06:37 11.7 °F /  -11.3 °C 11.1 °F /  -11.6 °C 1020.2 in /  34544 hPa Calm   1.6 mph /  2.6 km/h 96 % 0.0 in /  0 mm
06:42 11.9 °F /  -11.2 °C 11.3 °F /  -11.5 °C 1020.2 in /  34544 hPa Calm   1.6 mph /  2.6 km/h 96 % 0.0 in /  0 mm
06:47 12.1 °F /  -11.1 °C 11.5 °F /  -11.4 °C 1020.2 in /  34544 hPa Calm     96 % 0.0 in /  0 mm
06:52 12.1 °F /  -11.1 °C 11.5 °F /  -11.4 °C 1020.2 in /  34544 hPa Calm     96 % 0.0 in /  0 mm
07:02 12.1 °F /  -11.1 °C 11.5 °F /  -11.4 °C 1020.5 in /  34554.1 hPa Calm   1.6 mph /  2.6 km/h 96 % 0.0 in /  0 mm
07:12 12.3 °F /  -10.9 °C 11.7 °F /  -11.3 °C 1020.5 in /  34554.1 hPa Calm   1.6 mph /  2.6 km/h 96 % 0.0 in /  0 mm
07:17 12.3 °F /  -10.9 °C 11.7 °F /  -11.3 °C 1020.5 in /  34554.1 hPa Calm   1.6 mph /  2.6 km/h 96 % 0.0 in /  0 mm
07:22 12.5 °F /  -10.8 °C 11.9 °F /  -11.2 °C 1020.9 in /  34567.7 hPa Calm   1.6 mph /  2.6 km/h 96 % 0.0 in /  0 mm
07:32 12.9 °F /  -10.6 °C 12.3 °F /  -10.9 °C 1020.9 in /  34567.7 hPa South 1.6 mph /  2.6 km/h 1.6 mph /  2.6 km/h 96 % 0.0 in /  0 mm
07:42 13.6 °F /  -10.2 °C 13.0 °F /  -10.6 °C 1020.9 in /  34567.7 hPa SSW 4.8 mph /  7.7 km/h 4.8 mph /  7.7 km/h 96 % 0.0 in /  0 mm
07:47 13.8 °F /  -10.1 °C 13.2 °F /  -10.4 °C 1021.2 in /  34577.8 hPa SSW 4.8 mph /  7.7 km/h 8.0 mph /  12.9 km/h 96 % 0.0 in /  0 mm
07:52 14.1 °F /  -9.9 °C 13.5 °F /  -10.3 °C 1021.2 in /  34577.8 hPa SW 3.2 mph /  5.1 km/h 8.0 mph /  12.9 km/h 96 % 0.0 in /  0 mm
07:57 14.3 °F /  -9.8 °C 13.7 °F /  -10.2 °C 1021.2 in /  34577.8 hPa SW 3.2 mph /  5.1 km/h 8.0 mph /  12.9 km/h 96 % 0.0 in /  0 mm
08:02 14.7 °F /  -9.6 °C 13.9 °F /  -10.1 °C 1021.2 in /  34577.8 hPa WSW 3.2 mph /  5.1 km/h 8.0 mph /  12.9 km/h 95 % 0.0 in /  0 mm
08:12 15.3 °F /  -9.3 °C 14.3 °F /  -9.8 °C 1021.2 in /  34577.8 hPa SW 4.8 mph /  7.7 km/h 8.0 mph /  12.9 km/h 94 % 0.0 in /  0 mm
08:17 15.5 °F /  -9.2 °C 14.4 °F /  -9.8 °C 1021.6 in /  34591.4 hPa South 3.2 mph /  5.1 km/h 4.8 mph /  7.7 km/h 93 % 0.0 in /  0 mm
08:22 15.7 °F /  -9.1 °C 14.4 °F /  -9.8 °C 1021.6 in /  34591.4 hPa SW 4.8 mph /  7.7 km/h 4.8 mph /  7.7 km/h 92 % 0.0 in /  0 mm
08:32 16.1 °F /  -8.8 °C 14.6 °F /  -9.7 °C 1021.6 in /  34591.4 hPa Calm   6.4 mph /  10.3 km/h 91 % 0.0 in /  0 mm
08:42 16.4 °F /  -8.7 °C 14.6 °F /  -9.7 °C 1021.6 in /  34591.4 hPa SE 3.2 mph /  5.1 km/h 8.0 mph /  12.9 km/h 89 % 0.0 in /  0 mm
08:47 16.7 °F /  -8.5 °C 14.9 °F /  -9.5 °C 1021.6 in /  34591.4 hPa South 1.6 mph /  2.6 km/h 8.0 mph /  12.9 km/h 89 % 0.0 in /  0 mm
08:52 16.9 °F /  -8.4 °C 15.1 °F /  -9.4 °C 1021.6 in /  34591.4 hPa South 1.6 mph /  2.6 km/h 8.0 mph /  12.9 km/h 89 % 0.0 in /  0 mm
08:57 17.3 °F /  -8.2 °C 15.1 °F /  -9.4 °C 1021.6 in /  34591.4 hPa Calm   6.4 mph /  10.3 km/h 87 % 0.0 in /  0 mm
09:02 17.4 °F /  -8.1 °C 15.0 °F /  -9.4 °C 1021.9 in /  34601.5 hPa SSE 3.2 mph /  5.1 km/h 6.4 mph /  10.3 km/h 86 % 0.0 in /  0 mm
09:12 17.4 °F /  -8.1 °C 15.2 °F /  -9.3 °C 1021.9 in /  34601.5 hPa SSW 3.2 mph /  5.1 km/h 6.4 mph /  10.3 km/h 87 % 0.0 in /  0 mm
09:22 17.5 °F /  -8.1 °C 15.3 °F /  -9.3 °C 1021.9 in /  34601.5 hPa West 3.2 mph /  5.1 km/h 8.0 mph /  12.9 km/h 87 % 0.0 in /  0 mm
09:32 17.6 °F /  -8 °C 15.2 °F /  -9.3 °C 1022.2 in /  34611.7 hPa SW 6.4 mph /  10.3 km/h 11.3 mph /  18.2 km/h 86 % 0.0 in /  0 mm
09:42 17.8 °F /  -7.9 °C 15.4 °F /  -9.2 °C 1022.2 in /  34611.7 hPa SSW 6.4 mph /  10.3 km/h 9.7 mph /  15.6 km/h 86 % 0.0 in /  0 mm
09:47 17.7 °F /  -7.9 °C 15.1 °F /  -9.4 °C 1022.2 in /  34611.7 hPa SW 6.4 mph /  10.3 km/h 12.9 mph /  20.8 km/h 85 % 0.0 in /  0 mm
09:52 17.7 °F /  -7.9 °C 15.3 °F /  -9.3 °C 1022.2 in /  34611.7 hPa SSW 6.4 mph /  10.3 km/h 12.9 mph /  20.8 km/h 86 % 0.0 in /  0 mm
09:57 17.9 °F /  -7.8 °C 15.3 °F /  -9.3 °C 1022.2 in /  34611.7 hPa SSW 8.0 mph /  12.9 km/h 14.5 mph /  23.3 km/h 85 % 0.0 in /  0 mm
10:02 17.9 °F /  -7.8 °C 15.5 °F /  -9.2 °C 1022.2 in /  34611.7 hPa South 8.0 mph /  12.9 km/h 14.5 mph /  23.3 km/h 86 % 0.0 in /  0 mm
10:12 17.9 °F /  -7.8 °C 15.3 °F /  -9.3 °C 1022.2 in /  34611.7 hPa SW 14.5 mph /  23.3 km/h 14.5 mph /  23.3 km/h 85 % 0.0 in /  0 mm
10:17 17.9 °F /  -7.8 °C 15.5 °F /  -9.2 °C 1022.2 in /  34611.7 hPa SSW 12.9 mph /  20.8 km/h 16.1 mph /  25.9 km/h 86 % 0.0 in /  0 mm
10:22 17.8 °F /  -7.9 °C 15.2 °F /  -9.3 °C 1022.2 in /  34611.7 hPa SSW 11.3 mph /  18.2 km/h 16.1 mph /  25.9 km/h 85 % 0.0 in /  0 mm
10:32 18.1 °F /  -7.7 °C 15.5 °F /  -9.2 °C 1022.6 in /  34625.2 hPa SSW 12.9 mph /  20.8 km/h 17.7 mph /  28.5 km/h 85 % 0.0 in /  0 mm
10:42 18.3 °F /  -7.6 °C 15.7 °F /  -9.1 °C 1022.6 in /  34625.2 hPa SW 9.7 mph /  15.6 km/h 19.3 mph /  31.1 km/h 85 % 0.0 in /  0 mm
10:52 18.2 °F /  -7.7 °C 15.5 °F /  -9.2 °C 1022.6 in /  34625.2 hPa SSW 9.7 mph /  15.6 km/h 19.3 mph /  31.1 km/h 84 % 0.0 in /  0 mm
11:02 18.3 °F /  -7.6 °C 15.4 °F /  -9.2 °C 1022.6 in /  34625.2 hPa SW 9.7 mph /  15.6 km/h 20.9 mph /  33.6 km/h 83 % 0.0 in /  0 mm
11:07 18.4 °F /  -7.6 °C 15.6 °F /  -9.1 °C 1022.6 in /  34625.2 hPa SSW 8.0 mph /  12.9 km/h 19.3 mph /  31.1 km/h 84 % 0.0 in /  0 mm
11:12 18.6 °F /  -7.4 °C 15.7 °F /  -9.1 °C 1022.6 in /  34625.2 hPa SSW 8.0 mph /  12.9 km/h 19.3 mph /  31.1 km/h 83 % 0.0 in /  0 mm
11:17 18.8 °F /  -7.3 °C 15.9 °F /  -8.9 °C 1022.9 in /  34635.4 hPa SW 9.7 mph /  15.6 km/h 19.3 mph /  31.1 km/h 83 % 0.0 in /  0 mm
11:22 19.1 °F /  -7.2 °C 16.1 °F /  -8.8 °C 1022.9 in /  34635.4 hPa West 4.8 mph /  7.7 km/h 19.3 mph /  31.1 km/h 83 % 0.0 in /  0 mm
11:32 19.3 °F /  -7.1 °C 16.1 °F /  -8.8 °C 1022.9 in /  34635.4 hPa West 8.0 mph /  12.9 km/h 16.1 mph /  25.9 km/h 82 % 0.0 in /  0 mm
11:42 19.3 °F /  -7.1 °C 16.0 °F /  -8.9 °C 1022.9 in /  34635.4 hPa South 9.7 mph /  15.6 km/h 17.7 mph /  28.5 km/h 81 % 0.0 in /  0 mm
11:52 19.8 °F /  -6.8 °C 16.2 °F /  -8.8 °C 1023.2 in /  34645.6 hPa West 4.8 mph /  7.7 km/h 17.7 mph /  28.5 km/h 80 % 0.0 in /  0 mm
12:02 20.2 °F /  -6.6 °C 16.4 °F /  -8.7 °C 1023.2 in /  34645.6 hPa West 6.4 mph /  10.3 km/h 16.1 mph /  25.9 km/h 79 % 0.0 in /  0 mm
12:12 20.7 °F /  -6.3 °C 16.3 °F /  -8.7 °C 1022.9 in /  34635.4 hPa WSW 8.0 mph /  12.9 km/h 17.7 mph /  28.5 km/h 76 % 0.0 in /  0 mm
12:17 20.8 °F /  -6.2 °C 16.4 °F /  -8.7 °C 1022.9 in /  34635.4 hPa West 3.2 mph /  5.1 km/h 17.7 mph /  28.5 km/h 76 % 0.0 in /  0 mm
12:22 20.8 °F /  -6.2 °C 16.4 °F /  -8.7 °C 1023.2 in /  34645.6 hPa SSW 6.4 mph /  10.3 km/h 17.7 mph /  28.5 km/h 76 % 0.0 in /  0 mm
12:32 21.0 °F /  -6.1 °C 16.6 °F /  -8.6 °C 1022.9 in /  34635.4 hPa West 4.8 mph /  7.7 km/h 16.1 mph /  25.9 km/h 76 % 0.0 in /  0 mm
12:42 21.2 °F /  -6 °C 16.6 °F /  -8.6 °C 1022.9 in /  34635.4 hPa WNW 1.6 mph /  2.6 km/h 16.1 mph /  25.9 km/h 75 % 0.0 in /  0 mm
12:47 21.3 °F /  -5.9 °C 16.3 °F /  -8.7 °C 1022.9 in /  34635.4 hPa NW 4.8 mph /  7.7 km/h 16.1 mph /  25.9 km/h 73 % 0.0 in /  0 mm
12:52 21.1 °F /  -6.1 °C 16.1 °F /  -8.8 °C 1022.9 in /  34635.4 hPa WNW 3.2 mph /  5.1 km/h 16.1 mph /  25.9 km/h 73 % 0.0 in /  0 mm
13:02 21.6 °F /  -5.8 °C 15.7 °F /  -9.1 °C 1022.9 in /  34635.4 hPa West 6.4 mph /  10.3 km/h 12.9 mph /  20.8 km/h 69 % 0.0 in /  0 mm
13:07 21.6 °F /  -5.8 °C 15.9 °F /  -8.9 °C 1023.2 in /  34645.6 hPa WNW 8.0 mph /  12.9 km/h 19.3 mph /  31.1 km/h 70 % 0.0 in /  0 mm
13:17 22.1 °F /  -5.5 °C 15.9 °F /  -8.9 °C 1023.2 in /  34645.6 hPa WSW 6.4 mph /  10.3 km/h 19.3 mph /  31.1 km/h 68 % 0.0 in /  0 mm
13:22 22.4 °F /  -5.3 °C 16.2 °F /  -8.8 °C 1023.2 in /  34645.6 hPa West 4.8 mph /  7.7 km/h 19.3 mph /  31.1 km/h 68 % 0.0 in /  0 mm
13:27 22.6 °F /  -5.2 °C 16.2 °F /  -8.8 °C 1023.2 in /  34645.6 hPa NW 1.6 mph /  2.6 km/h 14.5 mph /  23.3 km/h 67 % 0.0 in /  0 mm
13:32 22.5 °F /  -5.3 °C 15.8 °F /  -9 °C 1023.2 in /  34645.6 hPa WNW 3.2 mph /  5.1 km/h 14.5 mph /  23.3 km/h 66 % 0.0 in /  0 mm
13:37 22.1 °F /  -5.5 °C 15.2 °F /  -9.3 °C 1023.2 in /  34645.6 hPa Calm   14.5 mph /  23.3 km/h 65 % 0.0 in /  0 mm
13:42 22.3 °F /  -5.4 °C 16.1 °F /  -8.8 °C 1023.2 in /  34645.6 hPa WNW 4.8 mph /  7.7 km/h 14.5 mph /  23.3 km/h 68 % 0.0 in /  0 mm
13:47 22.6 °F /  -5.2 °C 15.9 °F /  -8.9 °C 1023.2 in /  34645.6 hPa WSW 8.0 mph /  12.9 km/h 12.9 mph /  20.8 km/h 66 % 0.0 in /  0 mm
13:52 22.6 °F /  -5.2 °C 15.7 °F /  -9.1 °C 1023.2 in /  34645.6 hPa WSW 11.3 mph /  18.2 km/h 12.9 mph /  20.8 km/h 65 % 0.0 in /  0 mm
13:57 22.4 °F /  -5.3 °C 15.5 °F /  -9.2 °C 1022.9 in /  34635.4 hPa WSW 3.2 mph /  5.1 km/h 14.5 mph /  23.3 km/h 65 % 0.0 in /  0 mm
14:02 22.4 °F /  -5.3 °C 16.0 °F /  -8.9 °C 1023.2 in /  34645.6 hPa West 3.2 mph /  5.1 km/h 14.5 mph /  23.3 km/h 67 % 0.0 in /  0 mm
14:12 22.6 °F /  -5.2 °C 16.2 °F /  -8.8 °C 1023.2 in /  34645.6 hPa WSW 1.6 mph /  2.6 km/h 14.5 mph /  23.3 km/h 67 % 0.0 in /  0 mm
14:17 22.4 °F /  -5.3 °C 15.7 °F /  -9.1 °C 1023.2 in /  34645.6 hPa NNE 3.2 mph /  5.1 km/h 11.3 mph /  18.2 km/h 66 % 0.0 in /  0 mm
14:22 22.6 °F /  -5.2 °C 16.2 °F /  -8.8 °C 1023.2 in /  34645.6 hPa NNW 4.8 mph /  7.7 km/h 11.3 mph /  18.2 km/h 67 % 0.0 in /  0 mm
14:27 22.4 °F /  -5.3 °C 16.0 °F /  -8.9 °C 1022.9 in /  34635.4 hPa WNW 1.6 mph /  2.6 km/h 11.3 mph /  18.2 km/h 67 % 0.0 in /  0 mm
14:32 22.6 °F /  -5.2 °C 15.9 °F /  -8.9 °C 1022.9 in /  34635.4 hPa West 4.8 mph /  7.7 km/h 11.3 mph /  18.2 km/h 66 % 0.0 in /  0 mm
14:37 22.4 °F /  -5.3 °C 15.7 °F /  -9.1 °C 1022.9 in /  34635.4 hPa WNW 6.4 mph /  10.3 km/h 12.9 mph /  20.8 km/h 66 % 0.0 in /  0 mm
14:42 22.4 °F /  -5.3 °C 15.7 °F /  -9.1 °C 1022.9 in /  34635.4 hPa West 1.6 mph /  2.6 km/h 12.9 mph /  20.8 km/h 66 % 0.0 in /  0 mm
14:52 23.0 °F /  -5 °C 15.1 °F /  -9.4 °C 1022.9 in /  34635.4 hPa SW 4.8 mph /  7.7 km/h 11.3 mph /  18.2 km/h 61 % 0.0 in /  0 mm
14:57 23.2 °F /  -4.9 °C 15.0 °F /  -9.4 °C 1022.9 in /  34635.4 hPa SW 6.4 mph /  10.3 km/h 16.1 mph /  25.9 km/h 60 % 0.0 in /  0 mm
15:02 23.4 °F /  -4.8 °C 16.2 °F /  -8.8 °C 1022.9 in /  34635.4 hPa WNW 4.8 mph /  7.7 km/h 16.1 mph /  25.9 km/h 64 % 0.0 in /  0 mm
15:12 23.4 °F /  -4.8 °C 15.4 °F /  -9.2 °C 1023.2 in /  34645.6 hPa West 8.0 mph /  12.9 km/h 12.9 mph /  20.8 km/h 61 % 0.0 in /  0 mm
15:17 23.4 °F /  -4.8 °C 15.4 °F /  -9.2 °C 1023.2 in /  34645.6 hPa SW 1.6 mph /  2.6 km/h 17.7 mph /  28.5 km/h 61 % 0.0 in /  0 mm
15:22 23.9 °F /  -4.5 °C 15.9 °F /  -8.9 °C 1023.2 in /  34645.6 hPa WSW 1.6 mph /  2.6 km/h 17.7 mph /  28.5 km/h 61 % 0.0 in /  0 mm
15:27 24.1 °F /  -4.4 °C 15.6 °F /  -9.1 °C 1023.2 in /  34645.6 hPa West 3.2 mph /  5.1 km/h 14.5 mph /  23.3 km/h 59 % 0.0 in /  0 mm
15:32 23.8 °F /  -4.6 °C 15.8 °F /  -9 °C 1023.2 in /  34645.6 hPa NNW 1.6 mph /  2.6 km/h 14.5 mph /  23.3 km/h 61 % 0.0 in /  0 mm
15:37 23.6 °F /  -4.7 °C 15.9 °F /  -8.9 °C 1023.2 in /  34645.6 hPa WNW 1.6 mph /  2.6 km/h 9.7 mph /  15.6 km/h 62 % 0.0 in /  0 mm
15:42 23.4 °F /  -4.8 °C 15.7 °F /  -9.1 °C 1023.2 in /  34645.6 hPa WNW 8.0 mph /  12.9 km/h 9.7 mph /  15.6 km/h 62 % 0.0 in /  0 mm
15:47 23.1 °F /  -4.9 °C 15.7 °F /  -9.1 °C 1023.2 in /  34645.6 hPa NW 4.8 mph /  7.7 km/h 11.3 mph /  18.2 km/h 63 % 0.0 in /  0 mm
15:52 22.9 °F /  -5.1 °C 15.2 °F /  -9.3 °C 1023.2 in /  34645.6 hPa NW 6.4 mph /  10.3 km/h 11.3 mph /  18.2 km/h 62 % 0.0 in /  0 mm
15:57 22.8 °F /  -5.1 °C 15.1 °F /  -9.4 °C 1023.2 in /  34645.6 hPa WNW 4.8 mph /  7.7 km/h 14.5 mph /  23.3 km/h 62 % 0.0 in /  0 mm
16:02 22.9 °F /  -5.1 °C 15.5 °F /  -9.2 °C 1023.2 in /  34645.6 hPa NNE 4.8 mph /  7.7 km/h 14.5 mph /  23.3 km/h 63 % 0.0 in /  0 mm
16:07 22.8 °F /  -5.1 °C 15.1 °F /  -9.4 °C 1023.2 in /  34645.6 hPa NNE 3.2 mph /  5.1 km/h 9.7 mph /  15.6 km/h 62 % 0.0 in /  0 mm
16:12 22.7 °F /  -5.2 °C 15.5 °F /  -9.2 °C 1023.2 in /  34645.6 hPa West 1.6 mph /  2.6 km/h 9.7 mph /  15.6 km/h 64 % 0.0 in /  0 mm
16:17 22.5 °F /  -5.3 °C 15.6 °F /  -9.1 °C 1023.2 in /  34645.6 hPa NW 3.2 mph /  5.1 km/h 11.3 mph /  18.2 km/h 65 % 0.0 in /  0 mm
16:22 22.7 °F /  -5.2 °C 15.5 °F /  -9.2 °C 1023.2 in /  34645.6 hPa NNW 4.8 mph /  7.7 km/h 11.3 mph /  18.2 km/h 64 % 0.0 in /  0 mm
16:32 23.3 °F /  -4.8 °C 16.1 °F /  -8.8 °C 1023.2 in /  34645.6 hPa NW 9.7 mph /  15.6 km/h 12.9 mph /  20.8 km/h 64 % 0.0 in /  0 mm
16:37 23.3 °F /  -4.8 °C 15.1 °F /  -9.4 °C 1023.2 in /  34645.6 hPa WNW 3.2 mph /  5.1 km/h 16.1 mph /  25.9 km/h 60 % 0.0 in /  0 mm
16:42 23.7 °F /  -4.6 °C 15.7 °F /  -9.1 °C 1023.2 in /  34645.6 hPa WSW 3.2 mph /  5.1 km/h 16.1 mph /  25.9 km/h 61 % 0.0 in /  0 mm
16:47 23.5 °F /  -4.7 °C 15.8 °F /  -9 °C 1023.2 in /  34645.6 hPa WNW 1.6 mph /  2.6 km/h 12.9 mph /  20.8 km/h 62 % 0.0 in /  0 mm
16:52 23.6 °F /  -4.7 °C 15.6 °F /  -9.1 °C 1023.2 in /  34645.6 hPa North 1.6 mph /  2.6 km/h 12.9 mph /  20.8 km/h 61 % 0.0 in /  0 mm
16:57 23.4 °F /  -4.8 °C 15.7 °F /  -9.1 °C 1023.2 in /  34645.6 hPa NNW 3.2 mph /  5.1 km/h 11.3 mph /  18.2 km/h 62 % 0.0 in /  0 mm
17:02 23.6 °F /  -4.7 °C 16.1 °F /  -8.8 °C 1023.2 in /  34645.6 hPa North 4.8 mph /  7.7 km/h 11.3 mph /  18.2 km/h 63 % 0.0 in /  0 mm
17:12 23.7 °F /  -4.6 °C 16.2 °F /  -8.8 °C 1023.2 in /  34645.6 hPa North 6.4 mph /  10.3 km/h 12.9 mph /  20.8 km/h 63 % 0.0 in /  0 mm
17:17 23.6 °F /  -4.7 °C 15.6 °F /  -9.1 °C 1023.2 in /  34645.6 hPa North 4.8 mph /  7.7 km/h 14.5 mph /  23.3 km/h 61 % 0.0 in /  0 mm
17:22 23.4 °F /  -4.8 °C 15.4 °F /  -9.2 °C 1023.2 in /  34645.6 hPa North 9.7 mph /  15.6 km/h 14.5 mph /  23.3 km/h 61 % 0.0 in /  0 mm
17:27 23.6 °F /  -4.7 °C 15.9 °F /  -8.9 °C 1023.2 in /  34645.6 hPa NW 3.2 mph /  5.1 km/h 19.3 mph /  31.1 km/h 62 % 0.0 in /  0 mm
17:32 23.7 °F /  -4.6 °C 15.7 °F /  -9.1 °C 1023.2 in /  34645.6 hPa West 3.2 mph /  5.1 km/h 19.3 mph /  31.1 km/h 61 % 0.0 in /  0 mm
17:37 23.6 °F /  -4.7 °C 15.4 °F /  -9.2 °C 1023.2 in /  34645.6 hPa NNW 4.8 mph /  7.7 km/h 19.3 mph /  31.1 km/h 60 % 0.0 in /  0 mm
17:42 23.6 °F /  -4.7 °C 15.4 °F /  -9.2 °C 1023.2 in /  34645.6 hPa WNW 11.3 mph /  18.2 km/h 19.3 mph /  31.1 km/h 60 % 0.0 in /  0 mm
17:52 23.4 °F /  -4.8 °C 14.7 °F /  -9.6 °C 1023.2 in /  34645.6 hPa NNW 4.8 mph /  7.7 km/h 14.5 mph /  23.3 km/h 58 % 0.0 in /  0 mm
17:57 23.4 °F /  -4.8 °C 14.7 °F /  -9.6 °C 1023.2 in /  34645.6 hPa NW 1.6 mph /  2.6 km/h 14.5 mph /  23.3 km/h 58 % 0.0 in /  0 mm
18:02 23.6 °F /  -4.7 °C 14.6 °F /  -9.7 °C 1023.2 in /  34645.6 hPa NE 4.8 mph /  7.7 km/h 14.5 mph /  23.3 km/h 57 % 0.0 in /  0 mm
18:07 23.6 °F /  -4.7 °C 14.9 °F /  -9.5 °C 1023.2 in /  34645.6 hPa NW 3.2 mph /  5.1 km/h 14.5 mph /  23.3 km/h 58 % 0.0 in /  0 mm
18:12 23.6 °F /  -4.7 °C 15.4 °F /  -9.2 °C 1023.2 in /  34645.6 hPa WNW 1.6 mph /  2.6 km/h 14.5 mph /  23.3 km/h 60 % 0.0 in /  0 mm
18:17 23.4 °F /  -4.8 °C 14.9 °F /  -9.5 °C 1023.2 in /  34645.6 hPa NNW 6.4 mph /  10.3 km/h 17.7 mph /  28.5 km/h 59 % 0.0 in /  0 mm
18:22 23.3 °F /  -4.8 °C 15.4 °F /  -9.2 °C 1023.2 in /  34645.6 hPa NNW 4.8 mph /  7.7 km/h 17.7 mph /  28.5 km/h 61 % 0.0 in /  0 mm
18:32 23.2 °F /  -4.9 °C 15.5 °F /  -9.2 °C 1023.2 in /  34645.6 hPa WNW 1.6 mph /  2.6 km/h 16.1 mph /  25.9 km/h 62 % 0.0 in /  0 mm
18:37 23.2 °F /  -4.9 °C 15.0 °F /  -9.4 °C 1023.2 in /  34645.6 hPa NNW 8.0 mph /  12.9 km/h 16.1 mph /  25.9 km/h 60 % 0.0 in /  0 mm
18:42 23.2 °F /  -4.9 °C 15.5 °F /  -9.2 °C 1023.6 in /  34659.1 hPa NNW 8.0 mph /  12.9 km/h 16.1 mph /  25.9 km/h 62 % 0.0 in /  0 mm
18:47 23.3 °F /  -4.8 °C 14.8 °F /  -9.6 °C 1023.2 in /  34645.6 hPa NW 6.4 mph /  10.3 km/h 14.5 mph /  23.3 km/h 59 % 0.0 in /  0 mm
18:52 23.2 °F /  -4.9 °C 14.7 °F /  -9.6 °C 1023.2 in /  34645.6 hPa NNW 3.2 mph /  5.1 km/h 14.5 mph /  23.3 km/h 59 % 0.0 in /  0 mm
18:57 23.2 °F /  -4.9 °C 14.5 °F /  -9.7 °C 1023.2 in /  34645.6 hPa NNW 6.4 mph /  10.3 km/h 19.3 mph /  31.1 km/h 58 % 0.0 in /  0 mm
19:02 23.1 °F /  -4.9 °C 13.6 °F /  -10.2 °C 1023.2 in /  34645.6 hPa NW 4.8 mph /  7.7 km/h 19.3 mph /  31.1 km/h 55 % 0.0 in /  0 mm
19:07 22.9 °F /  -5.1 °C 13.7 °F /  -10.2 °C 1023.6 in /  34659.1 hPa NW 3.2 mph /  5.1 km/h 14.5 mph /  23.3 km/h 56 % 0.0 in /  0 mm
19:12 22.9 °F /  -5.1 °C 13.4 °F /  -10.3 °C 1023.6 in /  34659.1 hPa NW 4.8 mph /  7.7 km/h 14.5 mph /  23.3 km/h 55 % 0.0 in /  0 mm
19:17 22.9 °F /  -5.1 °C 12.5 °F /  -10.8 °C 1023.6 in /  34659.1 hPa WNW 8.0 mph /  12.9 km/h 12.9 mph /  20.8 km/h 52 % 0.0 in /  0 mm
19:22 23.1 °F /  -4.9 °C 13.0 °F /  -10.6 °C 1023.6 in /  34659.1 hPa NNW 4.8 mph /  7.7 km/h 12.9 mph /  20.8 km/h 53 % 0.0 in /  0 mm
19:32 22.7 °F /  -5.2 °C 14.0 °F /  -10 °C 1023.6 in /  34659.1 hPa North 4.8 mph /  7.7 km/h 12.9 mph /  20.8 km/h 58 % 0.0 in /  0 mm
19:37 22.6 °F /  -5.2 °C 13.9 °F /  -10.1 °C 1023.9 in /  34669.3 hPa NW 4.8 mph /  7.7 km/h 11.3 mph /  18.2 km/h 58 % 0.0 in /  0 mm
19:42 22.6 °F /  -5.2 °C 13.9 °F /  -10.1 °C 1023.9 in /  34669.3 hPa WNW 1.6 mph /  2.6 km/h 11.3 mph /  18.2 km/h 58 % 0.0 in /  0 mm
19:52 22.7 °F /  -5.2 °C 13.7 °F /  -10.2 °C 1023.6 in /  34659.1 hPa NNW 4.8 mph /  7.7 km/h 8.0 mph /  12.9 km/h 57 % 0.0 in /  0 mm
20:02 22.3 °F /  -5.4 °C 14.2 °F /  -9.9 °C 1023.9 in /  34669.3 hPa NW 4.8 mph /  7.7 km/h 8.0 mph /  12.9 km/h 60 % 0.0 in /  0 mm
20:12 22.2 °F /  -5.4 °C 14.6 °F /  -9.7 °C 1023.9 in /  34669.3 hPa NNW 3.2 mph /  5.1 km/h 9.7 mph /  15.6 km/h 62 % 0.0 in /  0 mm
20:17 22.2 °F /  -5.4 °C 14.6 °F /  -9.7 °C 1023.9 in /  34669.3 hPa NW 1.6 mph /  2.6 km/h 9.7 mph /  15.6 km/h 62 % 0.0 in /  0 mm
20:22 22.2 °F /  -5.4 °C 14.6 °F /  -9.7 °C 1023.9 in /  34669.3 hPa NNW 1.6 mph /  2.6 km/h 9.7 mph /  15.6 km/h 62 % 0.0 in /  0 mm
20:27 22.2 °F /  -5.4 °C 14.6 °F /  -9.7 °C 1023.9 in /  34669.3 hPa NNW 1.6 mph /  2.6 km/h 6.4 mph /  10.3 km/h 62 % 0.0 in /  0 mm
20:32 22.2 °F /  -5.4 °C 14.3 °F /  -9.8 °C 1023.9 in /  34669.3 hPa NW 4.8 mph /  7.7 km/h 6.4 mph /  10.3 km/h 61 % 0.0 in /  0 mm
20:37 22.2 °F /  -5.4 °C 14.6 °F /  -9.7 °C 1023.9 in /  34669.3 hPa NNW 3.2 mph /  5.1 km/h 8.0 mph /  12.9 km/h 62 % 0.0 in /  0 mm
20:42 21.8 °F /  -5.7 °C 14.4 °F /  -9.8 °C 1024.3 in /  34682.8 hPa NW 1.6 mph /  2.6 km/h 8.0 mph /  12.9 km/h 63 % 0.0 in /  0 mm
20:47 21.4 °F /  -5.9 °C 14.5 °F /  -9.7 °C 1024.3 in /  34682.8 hPa WNW 1.6 mph /  2.6 km/h 8.0 mph /  12.9 km/h 65 % 0.0 in /  0 mm
20:57 20.9 °F /  -6.2 °C 14.5 °F /  -9.7 °C 1024.3 in /  34682.8 hPa NNW 4.8 mph /  7.7 km/h 4.8 mph /  7.7 km/h 67 % 0.0 in /  0 mm
21:02 20.6 °F /  -6.3 °C 14.5 °F /  -9.7 °C 1024.3 in /  34682.8 hPa NNW 3.2 mph /  5.1 km/h 4.8 mph /  7.7 km/h 68 % 0.0 in /  0 mm
21:07 20.3 °F /  -6.5 °C 14.4 °F /  -9.8 °C 1024.3 in /  34682.8 hPa NNW 1.6 mph /  2.6 km/h 6.4 mph /  10.3 km/h 69 % 0.0 in /  0 mm
21:12 20.1 °F /  -6.6 °C 14.5 °F /  -9.7 °C 1024.3 in /  34682.8 hPa NNW 1.6 mph /  2.6 km/h 6.4 mph /  10.3 km/h 70 % 0.0 in /  0 mm
21:17 19.9 °F /  -6.7 °C 14.5 °F /  -9.7 °C 1024.3 in /  34682.8 hPa Calm   4.8 mph /  7.7 km/h 71 % 0.0 in /  0 mm
21:22 19.7 °F /  -6.8 °C 14.5 °F /  -9.7 °C 1024.3 in /  34682.8 hPa WNW 1.6 mph /  2.6 km/h 4.8 mph /  7.7 km/h 72 % 0.0 in /  0 mm
21:32 19.4 °F /  -7 °C 14.2 °F /  -9.9 °C 1024.3 in /  34682.8 hPa Calm   3.2 mph /  5.1 km/h 72 % 0.0 in /  0 mm
21:37 19.3 °F /  -7.1 °C 14.3 °F /  -9.8 °C 1024.3 in /  34682.8 hPa Calm   3.2 mph /  5.1 km/h 73 % 0.0 in /  0 mm
21:42 19.2 °F /  -7.1 °C 14.5 °F /  -9.7 °C 1024.3 in /  34682.8 hPa NW 1.6 mph /  2.6 km/h 3.2 mph /  5.1 km/h 74 % 0.0 in /  0 mm
21:52 18.9 °F /  -7.3 °C 14.4 °F /  -9.8 °C 1024.6 in /  34693 hPa Calm   3.2 mph /  5.1 km/h 75 % 0.0 in /  0 mm
21:57 18.7 °F /  -7.4 °C 14.2 °F /  -9.9 °C 1024.6 in /  34693 hPa NW 1.6 mph /  2.6 km/h 3.2 mph /  5.1 km/h 75 % 0.0 in /  0 mm
22:02 18.6 °F /  -7.4 °C 14.3 °F /  -9.8 °C 1024.6 in /  34693 hPa NW 3.2 mph /  5.1 km/h 3.2 mph /  5.1 km/h 76 % 0.0 in /  0 mm
22:07 18.4 °F /  -7.6 °C 14.1 °F /  -9.9 °C 1024.6 in /  34693 hPa NW 1.6 mph /  2.6 km/h 4.8 mph /  7.7 km/h 76 % 0.0 in /  0 mm
22:12 18.3 °F /  -7.6 °C 14.0 °F /  -10 °C 1024.6 in /  34693 hPa NW 1.6 mph /  2.6 km/h 4.8 mph /  7.7 km/h 76 % 0.0 in /  0 mm
22:17 18.2 °F /  -7.7 °C 14.1 °F /  -9.9 °C 1024.9 in /  34703.1 hPa West 3.2 mph /  5.1 km/h 4.8 mph /  7.7 km/h 77 % 0.0 in /  0 mm
22:22 18.1 °F /  -7.7 °C 14.0 °F /  -10 °C 1024.9 in /  34703.1 hPa WNW 1.6 mph /  2.6 km/h 4.8 mph /  7.7 km/h 77 % 0.0 in /  0 mm
22:32 17.8 °F /  -7.9 °C 13.9 °F /  -10.1 °C 1024.9 in /  34703.1 hPa Calm   4.8 mph /  7.7 km/h 78 % 0.0 in /  0 mm
22:37 17.6 °F /  -8 °C 13.7 °F /  -10.2 °C 1024.9 in /  34703.1 hPa Calm   4.8 mph /  7.7 km/h 78 % 0.0 in /  0 mm
22:42 17.4 °F /  -8.1 °C 13.5 °F /  -10.3 °C 1024.9 in /  34703.1 hPa Calm   4.8 mph /  7.7 km/h 78 % 0.0 in /  0 mm
22:52 17.3 °F /  -8.2 °C 13.6 °F /  -10.2 °C 1024.9 in /  34703.1 hPa Calm   3.2 mph /  5.1 km/h 79 % 0.0 in /  0 mm
22:57 17.2 °F /  -8.2 °C 13.5 °F /  -10.3 °C 1024.9 in /  34703.1 hPa Calm   1.6 mph /  2.6 km/h 79 % 0.0 in /  0 mm
23:02 17.0 °F /  -8.3 °C 13.3 °F /  -10.4 °C 1024.9 in /  34703.1 hPa Calm   1.6 mph /  2.6 km/h 79 % 0.0 in /  0 mm
23:12 16.8 °F /  -8.4 °C 13.3 °F /  -10.4 °C 1024.9 in /  34703.1 hPa Calm     80 % 0.0 in /  0 mm
23:17 16.8 °F /  -8.4 °C 13.3 °F /  -10.4 °C 1024.9 in /  34703.1 hPa Calm     80 % 0.0 in /  0 mm
23:22 16.7 °F /  -8.5 °C 13.2 °F /  -10.4 °C 1024.9 in /  34703.1 hPa NW 3.2 mph /  5.1 km/h   80 % 0.0 in /  0 mm
23:32 16.7 °F /  -8.5 °C 13.2 °F /  -10.4 °C 1024.9 in /  34703.1 hPa North 1.6 mph /  2.6 km/h 3.2 mph /  5.1 km/h 80 % 0.0 in /  0 mm
23:42 16.6 °F /  -8.6 °C 13.1 °F /  -10.5 °C 1024.9 in /  34703.1 hPa NW 3.2 mph /  5.1 km/h 3.2 mph /  5.1 km/h 80 % 0.0 in /  0 mm
23:52 16.5 °F /  -8.6 °C 13.0 °F /  -10.6 °C 1024.9 in /  34703.1 hPa WNW 1.6 mph /  2.6 km/h 3.2 mph /  5.1 km/h 80 % 0.0 in /  0 mm
23:57 16.4 °F /  -8.7 °C 12.9 °F /  -10.6 °C 1024.9 in /  34703.1 hPa WNW 4.8 mph /  7.7 km/h 6.4 mph /  10.3 km/h 80 % 0.0 in /  0 mm
Meteo18
Compliments of Weather Underground - 4 mb

Script developed by  Jim McMurry - jmcmurry@mwt.net Adapted for the template by  Wim van der Kuil - Leuven-Template.eu

You find our weather info also at:

European Weather Network

Weather Underground

Equipment we use:

Weather-station
Davis Vue

Weather-program
Meteobridge

Weather-server
Raspberry PI 2 B+

Provider
1 and 1

Davis Vue

Meteobridge

Raspberry PI 2 B+

1 and 1